Location: Sungai Bunut
(2.6333°N, 113.7333°E)
Time: 12:00:22
(UTC+00:00)

USA 276 - Pass Details

Date: 16 October 2021
Orbit: 375 x 382 km, 50.0° (Epoch: 26 November)

Event Time Altitude Azimuth Distance (km) Brightness Sun altitude
Exits shadow 21:01:49 22° 208° (SSW) 898 3.7 -17.4°
Maximum altitude 21:03:41 71° 127° (SE) 410 2.3 -16.9°
Drops below altitude 10° 21:06:49 10° 43° (NE) 1,403 5.3 -16.1°
Sets 21:08:52 0° 40° (NE) 2,252 6.4 -15.6°
